COSMOS 2526

Last updated on Mon Jun 22 2026 00:03:06 GMT+0000 (Coordinated Universal Time)

1 43432U 18037A 26172.70061137 -.00000345 00000+0 00000+0 0 9999 2 43432 0.0295 76.0753 0000263 107.5163 106.5855 1.00272275 30005
UTC large
Height (km)
Speed (km/s)
/
Latitude / Longitude
Inclination (degrees)
Orbital Period (minutes)
Azimuth
Elevation
Range (km)
Doppler Factor

Next 0 passes for location: London (51.5072 / 0.1276)

No passes found over London.
COSMOS 2526